Location: Arrodets-la-Barthe
(43.0306°N, 0.2829°E)
Time: 13:44:55
(UTC+00:00)

STARLINK-5279 - Pass Details

Date: 27 November 2022
Orbit: 539 x 540 km, 53.2° (Epoch: 02 February)

Event Time Altitude Azimuth Distance (km) Brightness Sun altitude
Exits shadow 04:01:29 16° 114° (ESE) 1,448 ? -33.2°
Drops below altitude 10° 04:02:20 10° 116° (ESE) 1,782 ? -33.0°
Enters shadow 05:03:00 -61° 317° (NW) 11,796 ? -22.0°
